Weather History for Mount Holly, NJ

Change the Weather History Date:

Wednesday, February 6, 2013

  Actual Average (KWRI) Record (KWRI)
Temperature  
Mean Temperature 31 °F -  
Max Temperature 39 °F 41 °F 70 °F (2008)
Min Temperature 23 °F 23 °F 8 °F (2007)
Degree Days  
Heating Degree Days 34    
Moisture  
Dew Point 23 °F    
Average Humidity 73    
Maximum Humidity 100    
Minimum Humidity 45    
Precipitation  
Precipitation 0.00 in - - ()
Sea Level Pressure  
Sea Level Pressure 30.13 in    
Wind  
Wind Speed 3 mph (WNW)    
Max Wind Speed 13 mph    
Max Gust Speed 23 mph    
Visibility 6 miles    
Events Fog    
Averages and records for this station are not official NWS values.
T = Trace of Precipitation, MM = Missing Value Source: NWS Daily Summary

Daily Weather History Graph

Daily Weather History Graph

Search for Another Location

Airport:

Trip Planner

Search our weather history database for the weather conditions in past years. The results will help you decide how hot, cold, wet, or windy it might be!

Date:

Astronomy

Feb. 06, 2013 Rise Set
Actual Time 7:02 AM EST 5:24 PM EST
Civil Twilight 6:34 AM EST 5:53 PM EST
Nautical Twilight 6:02 AM EST 6:25 PM EST
Astronomical Twilight 5:30 AM EST 6:56 PM EST
Moon 3:43 AM EST (2/6) 1:40 PM EST (2/6)
Length of Visible Light 11h 19m
Length of Day
10h 22m
Waning Crescent, 17% of the Moon is Illuminated
Feb 6
Waning Crescent
Feb 10
New
Feb 17
First Quarter
Feb 25
Full
Mar 4
Last Quarter

Hourly Weather History & Observations

Time (EST) Temp. Windchill Dew Point Humidity Pressure Visibility Wind Dir Wind Speed Gust Speed Precip Events Conditions
1:34 AM 32.0 °F - 30.2 °F 93% 29.94 in 3.0 mi Calm Calm - N/A   Overcast
1:43 AM 32.0 °F - 30.2 °F 93% 29.95 in 2.5 mi Calm Calm - N/A   Overcast
3:04 AM 30.2 °F - 28.4 °F 93% 29.95 in 1.0 mi Calm Calm - N/A   Overcast
3:30 AM 28.4 °F - 26.6 °F 93% 29.95 in 0.8 mi Calm Calm - N/A   Mostly Cloudy
3:42 AM 26.6 °F - 24.8 °F 93% 29.95 in 0.2 mi Calm Calm - N/A Fog Light Freezing Fog
3:54 AM 25.0 °F - 24.1 °F 96% 29.96 in 0.2 mi Calm Calm - N/A Fog Light Freezing Fog
4:29 AM 26.6 °F - 26.6 °F 100% 29.97 in 0.5 mi Calm Calm - N/A Fog Light Freezing Fog
4:51 AM 23.0 °F - 21.2 °F 93% 29.99 in 1.2 mi Calm Calm - N/A   Scattered Clouds
4:54 AM 24.1 °F - 21.9 °F 91% 30.00 in 1.5 mi Calm Calm - N/A   Partly Cloudy
5:54 AM 27.0 °F - 25.0 °F 92% 30.02 in 1.8 mi Calm Calm - N/A   Clear
6:54 AM 28.9 °F 23.9 °F 27.0 °F 92% 30.06 in 4.0 mi West 4.6 mph - N/A   Overcast
7:54 AM 30.0 °F 23.2 °F 27.0 °F 88% 30.10 in 3.0 mi West 6.9 mph - N/A   Clear
10:54 AM 37.0 °F 29.8 °F 23.0 °F 57% 30.17 in 10.0 mi WNW 10.4 mph 20.7 mph N/A   Overcast
11:54 AM 39.0 °F 31.4 °F 23.0 °F 53% 30.16 in 10.0 mi West 12.7 mph 20.7 mph N/A   Partly Cloudy
12:54 PM 37.0 °F 28.9 °F 21.9 °F 54% 30.16 in 10.0 mi West 12.7 mph 21.9 mph N/A   Overcast
1:54 PM 37.9 °F 30.0 °F 21.0 °F 51% 30.16 in 10.0 mi WNW 12.7 mph 21.9 mph N/A   Overcast
2:54 PM 37.9 °F 30.0 °F 19.9 °F 48% 30.18 in 10.0 mi WNW 12.7 mph 23.0 mph N/A   Overcast
3:54 PM 39.0 °F 32.3 °F 19.0 °F 45% 30.19 in 10.0 mi WNW 10.4 mph 19.6 mph N/A   Mostly Cloudy
4:54 PM 37.9 °F 31.5 °F 19.0 °F 47% 30.22 in 10.0 mi WNW 9.2 mph 17.3 mph N/A   Scattered Clouds
5:54 PM 36.0 °F 32.1 °F 19.0 °F 50% 30.25 in 10.0 mi NW 4.6 mph - N/A   Scattered Clouds
6:54 PM 36.0 °F 33.3 °F 19.9 °F 52% 30.28 in 10.0 mi West 3.5 mph - N/A   Clear
7:54 PM 34.0 °F 31.0 °F 19.9 °F 56% 30.30 in 10.0 mi WNW 3.5 mph - N/A   Clear
8:54 PM 30.9 °F 27.5 °F 19.9 °F 64% 30.31 in 10.0 mi NW 3.5 mph - N/A   Clear
9:54 PM 30.0 °F 25.2 °F 19.0 °F 64% 30.34 in 10.0 mi NNW 4.6 mph - N/A   Clear
10:54 PM 26.1 °F - 19.0 °F 75% 30.36 in 10.0 mi Calm Calm - N/A   Clear
11:54 PM 25.0 °F - 18.0 °F 75% 30.38 in 10.0 mi Calm Calm - N/A   Clear